STARLINK-35308, 65848

Orbit data source: Space-Track

STARLINK-35308, 65848 is a payload satellite owned by SpaceX/Seattle (US) in LEO that was launched on Mon, 29 Sep 2025 UTC via an FALCON 9 launch vehicle from the Air Force Western Test Range (AFWTR). Payload-class satellites include a variety of spacecraft equipped with specific instruments for various scientific and technological missions. These include communications satellites like Starlink; space stations such as the ISS; scientific satellites like the Hubble; Earth observation satellites from companies like Planet Labs, Umbra, and HawkEye 360; GPS; miniature CubeSats for education and research; and military/defense satellites.

Loading next visibility...
Identifier
65848, 2025-221AB
Orbit
LEO
Country
Flag of USUS
Related business
Manufacturer
SpaceX/Seattle
Mission
Operational Commercial Communications
Bus & Motor
STARLINK V2MO, Unknown motor
Mass
575 kg wet, ~530 kg dry
Launch date (UTC)
2025-09-29 (9 months ago)
Launch vehicle
FALCON 9
Launch site
Air Force Western Test Range (AFWTR)
Object type
Payload
Rocket body
Debris
Shape & HBR
Box + 2 Pan, 17.7 m
Radar Cross Section
36.964 m², Large (>1 m²)

Expand to show TLE details & history
Last TLE update: 1 day ago

TLE from 1 day ago
0 STARLINK-35308
1 65848U 25221AB  26170.80528978  .00011222  00000-0  34280-3 0  9994
2 65848  53.1590 332.8972 0001020  66.7200 293.3910 15.34395528 41731
Epoch: 2026-06-19T19:19Z
TLE epoch observation values (Epoch: 2026-06-19T19:19:37.036Z)
Latitude
-0.00004°
Longitude
134.96386°
Altitude
463.341 km
Speed
7.636 km/s
True Right ascension
22h 11m 35s
True Declination
0° 00' 00"
Sunlit
Object was in full shadow at epoch
Visualization orbit readout
Latitude
Unknown
Longitude
Unknown
Altitude
Unknown
Speed
Unknown
Apparent Right ascension
Unknown
Apparent Declination
Unknown
Sunlit
N/A
Visualization observer readout
Local Sidereal Time
07:19:39
Azimuth
Unknown
Elevation
Unknown
Doppler factor
Unknown
Orbital elements
Apogee altitude
463.671 km
Perigee altitude
462.276 km
Semi-major axis
6,841.111 km
Eccentricity
0.0001
Inclination
53.159°
RAAN
332.8972°
Arg. of periapsis
66.72°
True anomaly
293.38027°
Mean anomaly
293.391°
Eccentric anomaly
293.38564°
Mean motion
3.83578 °/min
Orbital period
93.85 mins
BSTAR
0.0003428
Loading maneuver chart data...
Computing Atmospheric mass density...
Loading historical data...
Loading historical data...
Loading historical data...
Loading historical data...
Loading historical data...
Loading historical data...
Loading historical data...

Documentation

Showing up to 5 results
|